| time (UTC) | temp F | wind direction | speed knots | gust knots | rain 1hr in | rain 24hr in | rain mn in | humidity % | barometer mb |
| 20260505053246 | 70 | 90 | 1.7 | 4.3 | 0.00 | 0.00 | 0.00 | 91 | 1019.0 |
| 20260505052743 | 70 | 98 | 0.9 | 2.6 | 0.00 | 0.00 | 0.00 | 91 | 1019.1 |
| 20260505052240 | 70 | 111 | 0.9 | 1.7 | 0.00 | 0.00 | 0.00 | 91 | 1019.3 |
| 20260505051737 | 70 | 102 | 1.7 | 2.6 | 0.00 | 0.00 | 0.00 | 91 | 1019.2 |
| 20260505051235 | 70 | 106 | 1.7 | 2.6 | 0.00 | 0.00 | 0.00 | 91 | 1019.0 |
| 20260505050733 | 70 | 94 | 1.7 | 2.6 | 0.00 | 0.00 | 0.00 | 91 | 1019.0 |
| 20260505050231 | 70 | 88 | 2.6 | 4.3 | 0.00 | 0.00 | 0.00 | 90 | 1019.2 |
| 20260505041700 | 70 | 95 | 2.6 | 4.3 | 0.00 | 0.00 | 0.00 | 89 | 1019.2 |
| 20260505041158 | 71 | 95 | 3.5 | 6.1 | 0.00 | 0.00 | 0.00 | 89 | 1019.2 |
| 20260505040655 | 71 | 109 | 0.9 | 2.6 | 0.00 | 0.00 | 0.00 | 89 | 1019.4 |
| 20260505040152 | 71 | 77 | 1.7 | 2.6 | 0.00 | 0.00 | 0.00 | 89 | 1019.4 |
| 20260505035648 | 71 | 109 | 1.7 | 2.6 | 0.00 | 0.00 | 0.00 | 89 | 1019.3 |
| 20260505035145 | 71 | 110 | 1.7 | 7.0 | 0.00 | 0.00 | 0.00 | 89 | 1019.5 |
| 20260505034641 | 71 | 113 | 2.6 | 6.1 | 0.00 | 0.00 | 0.00 | 88 | 1019.4 |
| 20260505034139 | 71 | 100 | 1.7 | 5.2 | 0.00 | 0.00 | 0.00 | 89 | 1019.6 |
| 20260505033635 | 71 | 100 | 0.9 | 7.0 | 0.00 | 0.00 | 0.00 | 88 | 1019.6 |
| 20260505033133 | 71 | 94 | 3.5 | 5.2 | 0.00 | 0.00 | 0.00 | 89 | 1019.6 |
| 20260505032631 | 71 | 107 | 3.5 | 6.1 | 0.00 | 0.00 | 0.00 | 89 | 1019.7 |
| 20260505032127 | 71 | 119 | 1.7 | 4.3 | 0.00 | 0.00 | 0.00 | 89 | 1019.6 |
| 20260505031624 | 71 | 114 | 2.6 | 5.2 | 0.00 | 0.00 | 0.00 | 88 | 1019.4 |
| 20260505031120 | 71 | 115 | 1.7 | 6.1 | 0.00 | 0.00 | 0.00 | 88 | 1019.7 |
| 20260505030618 | 71 | 133 | 4.3 | 6.1 | 0.00 | 0.00 | 0.00 | 88 | 1019.7 |
| 20260505030113 | 71 | 117 | 2.6 | 7.0 | 0.00 | 0.00 | 0.00 | 88 | 1019.6 |
| 20260505025609 | 71 | 89 | 4.3 | 7.0 | 0.00 | 0.00 | 0.00 | 88 | 1019.8 |
| 20260505025108 | 71 | 108 | 1.7 | 4.3 | 0.00 | 0.00 | 0.00 | 88 | 1019.7 |
| 20260505024605 | 71 | 120 | 2.6 | 4.3 | 0.00 | 0.00 | 0.00 | 88 | 1019.6 |
| 20260505024103 | 71 | 99 | 1.7 | 5.2 | 0.00 | 0.00 | 0.00 | 88 | 1019.7 |
| 20260505023559 | 71 | 92 | 2.6 | 4.3 | 0.00 | 0.00 | 0.00 | 87 | 1020.0 |
| 20260505023057 | 71 | 97 | 1.7 | 5.2 | 0.00 | 0.00 | 0.00 | 87 | 1019.6 |
| 20260505022554 | 72 | 157 | 0.9 | 2.6 | 0.00 | 0.00 | 0.00 | 87 | 1019.6 |
| 20260505022051 | 72 | 97 | 2.6 | 5.2 | 0.00 | 0.00 | 0.00 | 87 | 1019.5 |
| 20260505021548 | 72 | 91 | 3.5 | 6.1 | 0.00 | 0.00 | 0.00 | 87 | 1019.7 |
| 20260505021045 | 72 | 103 | 3.5 | 5.2 | 0.00 | 0.00 | 0.00 | 87 | 1019.3 |
| 20260505020544 | 72 | 99 | 1.7 | 6.1 | 0.00 | 0.00 | 0.00 | 86 | 1019.4 |
| 20260505020042 | 72 | 104 | 6.1 | 7.8 | 0.00 | 0.00 | 0.00 | 86 | 1019.5 |
| 20260505015539 | 72 | 109 | 3.5 | 5.2 | 0.00 | 0.00 | 0.00 | 86 | 1019.5 |
| 20260505015035 | 72 | 126 | 2.6 | 7.0 | 0.00 | 0.00 | 0.00 | 86 | 1019.3 |
| 20260505014532 | 73 | 129 | 4.3 | 6.1 | 0.00 | 0.00 | 0.00 | 86 | 1019.2 |
| 20260505014030 | 73 | 89 | 2.6 | 7.0 | 0.00 | 0.00 | 0.00 | 85 | 1019.2 |
| 20260505013527 | 73 | 106 | 3.5 | 7.8 | 0.00 | 0.00 | 0.00 | 85 | 1019.4 |
| 20260505013024 | 73 | 104 | 4.3 | 7.0 | 0.00 | 0.00 | 0.00 | 85 | 1019.2 |
| 20260505012522 | 73 | 39 | 4.3 | 7.8 | 0.00 | 0.00 | 0.00 | 85 | 1019.5 |
| 20260505012019 | 73 | 58 | 3.5 | 5.2 | 0.00 | 0.00 | 0.00 | 85 | 1019.3 |
| 20260505011514 | 73 | 77 | 5.2 | 7.8 | 0.00 | 0.00 | 0.00 | 85 | 1019.0 |
| 20260505011011 | 73 | 106 | 1.7 | 5.2 | 0.00 | 0.00 | 0.00 | 85 | 1019.3 |
| 20260505010507 | 73 | 159 | 4.3 | 8.7 | 0.00 | 0.00 | 0.00 | 84 | 1019.5 |
| 20260505010004 | 73 | 94 | 3.5 | 7.8 | 0.00 | 0.00 | 0.00 | 84 | 1019.4 |
| 20260505005500 | 73 | 73 | 2.6 | 6.1 | 0.00 | 0.00 | 0.00 | 85 | 1019.2 |
| 20260505004958 | 73 | 95 | 4.3 | 6.1 | 0.00 | 0.00 | 0.00 | 84 | 1018.8 |
| 20260505004454 | 73 | 104 | 5.2 | 7.8 | 0.00 | 0.00 | 0.00 | 84 | 1018.8 |
| 20260505003951 | 73 | 70 | 5.2 | 7.8 | 0.00 | 0.00 | 0.00 | 84 | 1018.7 |
| 20260505003448 | 74 | 75 | 4.3 | 7.8 | 0.00 | 0.00 | 0.00 | 83 | 1018.6 |
| 20260505002944 | 74 | 92 | 3.5 | 7.0 | 0.00 | 0.00 | 0.00 | 82 | 1018.4 |
| 20260505002441 | 74 | 97 | 3.5 | 7.8 | 0.00 | 0.00 | 0.00 | 82 | 1018.5 |
| 20260505001939 | 74 | 136 | 1.7 | 9.6 | 0.00 | 0.00 | 0.00 | 82 | 1018.7 |
| 20260505001437 | 74 | 157 | 6.1 | 7.8 | 0.00 | 0.00 | 0.00 | 81 | 1018.7 |
| 20260505000933 | 74 | 133 | 2.6 | 12.2 | 0.00 | 0.00 | 0.00 | 81 | 1018.7 |
| 20260505000432 | 75 | 178 | 3.5 | 7.0 | 0.00 | 0.00 | 0.00 | 80 | 1018.6 |
| 20260504235928 | 75 | 84 | 1.7 | 6.1 | 0.00 | 0.00 | 0.00 | 80 | 1018.5 |
| 20260504235425 | 75 | 206 | 6.1 | 12.2 | 0.00 | 0.00 | 0.00 | 80 | 1018.3 |
| 20260504234921 | 75 | 101 | 7.8 | 12.2 | 0.00 | 0.00 | 0.00 | 80 | 1018.3 |
| 20260504234419 | 75 | 158 | 7.0 | 7.8 | 0.00 | 0.00 | 0.00 | 80 | 1018.1 |
| 20260504233915 | 75 | 82 | 7.8 | 9.6 | 0.00 | 0.00 | 0.00 | 79 | 1017.9 |
| 20260504233411 | 75 | 107 | 6.1 | 12.2 | 0.00 | 0.00 | 0.00 | 79 | 1018.0 |
| 20260504232908 | 75 | 154 | 2.6 | 7.0 | 0.00 | 0.00 | 0.00 | 79 | 1017.9 |
| 20260504232405 | 75 | 137 | 4.3 | 7.8 | 0.00 | 0.00 | 0.00 | 78 | 1017.8 |
| 20260504231902 | 76 | 108 | 4.3 | 7.0 | 0.00 | 0.00 | 0.00 | 78 | 1017.9 |
| 20260504231358 | 76 | 65 | 1.7 | 9.6 | 0.00 | 0.00 | 0.00 | 78 | 1017.9 |
| 20260504230855 | 76 | 148 | 7.0 | 12.2 | 0.00 | 0.00 | 0.00 | 77 | 1018.1 |
| 20260504230352 | 77 | 141 | 4.3 | 7.0 | 0.00 | 0.00 | 0.00 | 77 | 1017.8 |
| 20260504225851 | 77 | 105 | 6.1 | 12.2 | 0.00 | 0.00 | 0.00 | 76 | 1018.0 |
| 20260504225347 | 77 | 58 | 5.2 | 12.2 | 0.00 | 0.00 | 0.00 | 75 | 1017.7 |
| 20260504224844 | 77 | 90 | 9.6 | 13.0 | 0.00 | 0.00 | 0.00 | 74 | 1017.7 |
| 20260504224341 | 77 | 70 | 3.5 | 7.8 | 0.00 | 0.00 | 0.00 | 74 | 1017.9 |
| 20260504223838 | 77 | 165 | 3.5 | 8.7 | 0.00 | 0.00 | 0.00 | 74 | 1017.8 |
| 20260504223333 | 78 | 161 | 6.1 | 7.8 | 0.00 | 0.00 | 0.00 | 73 | 1018.0 |
| 20260504222830 | 79 | 102 | 2.6 | 5.2 | 0.00 | 0.00 | 0.00 | 72 | 1017.7 |
| 20260504222327 | 79 | 146 | 4.3 | 11.3 | 0.00 | 0.00 | 0.00 | 73 | 1017.7 |
| 20260504221826 | 79 | 86 | 7.0 | 7.8 | 0.00 | 0.00 | 0.00 | 72 | 1017.8 |
| 20260504221322 | 79 | 106 | 2.6 | 9.6 | 0.00 | 0.00 | 0.00 | 73 | 1017.9 |
| 20260504220819 | 78 | 124 | 5.2 | 7.8 | 0.00 | 0.00 | 0.00 | 72 | 1017.9 |
| 20260504220316 | 79 | 203 | 6.1 | 9.6 | 0.00 | 0.00 | 0.00 | 72 | 1017.9 |
| 20260504215813 | 79 | 97 | 2.6 | 7.8 | 0.00 | 0.00 | 0.00 | 72 | 1017.8 |
| 20260504215309 | 79 | 150 | 3.5 | 7.8 | 0.00 | 0.00 | 0.00 | 72 | 1017.7 |
| 20260504214805 | 79 | 101 | 6.1 | 13.9 | 0.00 | 0.00 | 0.00 | 73 | 1017.7 |
| 20260504214303 | 78 | 82 | 7.0 | 11.3 | 0.00 | 0.00 | 0.00 | 72 | 1017.5 |
| 20260504213759 | 79 | 79 | 6.1 | 9.6 | 0.00 | 0.00 | 0.00 | 72 | 1017.7 |
| 20260504213255 | 79 | 107 | 5.2 | 12.2 | 0.00 | 0.00 | 0.00 | 71 | 1017.5 |
| 20260504212752 | 79 | 110 | 3.5 | 13.0 | 0.00 | 0.00 | 0.00 | 71 | 1017.8 |
| 20260504212249 | 79 | 103 | 4.3 | 9.6 | 0.00 | 0.00 | 0.00 | 72 | 1017.8 |
| 20260504211746 | 80 | 165 | 4.3 | 11.3 | 0.00 | 0.00 | 0.00 | 69 | 1017.7 |
| 20260504211242 | 80 | 83 | 4.3 | 7.0 | 0.00 | 0.00 | 0.00 | 70 | 1017.6 |
| 20260504210740 | 80 | 136 | 7.8 | 11.3 | 0.00 | 0.00 | 0.00 | 71 | 1017.8 |
| 20260504210237 | 80 | 57 | 7.0 | 13.0 | 0.00 | 0.00 | 0.00 | 71 | 1017.8 |
| 20260504205734 | 80 | 75 | 5.2 | 11.3 | 0.00 | 0.00 | 0.00 | 70 | 1017.9 |
| 20260504205232 | 80 | 64 | 7.0 | 11.3 | 0.00 | 0.00 | 0.00 | 71 | 1017.8 |
| 20260504204730 | 80 | 69 | 7.8 | 17.4 | 0.00 | 0.00 | 0.00 | 71 | 1017.8 |
| 20260504204228 | 80 | 93 | 6.1 | 11.3 | 0.00 | 0.00 | 0.00 | 70 | 1017.6 |
| 20260504203727 | 79 | 60 | 8.7 | 12.2 | 0.00 | 0.00 | 0.00 | 71 | 1017.9 |
| 20260504203223 | 79 | 103 | 3.5 | 8.7 | 0.00 | 0.00 | 0.00 | 72 | 1017.7 |
| 20260504202718 | 80 | 84 | 4.3 | 11.3 | 0.00 | 0.00 | 0.00 | 70 | 1017.8 |
| 20260504202215 | 79 | 66 | 4.3 | 9.6 | 0.00 | 0.00 | 0.00 | 70 | 1018.1 |
| 20260504201712 | 80 | 96 | 6.1 | 13.0 | 0.00 | 0.00 | 0.00 | 71 | 1018.1 |
| 20260504201210 | 81 | 80 | 4.3 | 7.8 | 0.00 | 0.00 | 0.00 | 67 | 1018.0 |
| 20260504200707 | 81 | 139 | 2.6 | 8.7 | 0.00 | 0.00 | 0.00 | 69 | 1018.0 |
| 20260504200203 | 82 | 55 | 4.3 | 9.6 | 0.00 | 0.00 | 0.00 | 68 | 1017.9 |
| 20260504195659 | 81 | 103 | 7.0 | 13.0 | 0.00 | 0.00 | 0.00 | 67 | 1018.1 |
| 20260504195155 | 80 | 52 | 9.6 | 11.3 | 0.00 | 0.00 | 0.00 | 69 | 1018.2 |
| 20260504194653 | 81 | 96 | 5.2 | 8.7 | 0.00 | 0.00 | 0.00 | 69 | 1018.1 |
| 20260504194148 | 82 | 87 | 2.6 | 11.3 | 0.00 | 0.00 | 0.00 | 66 | 1018.4 |
| 20260504193645 | 82 | 60 | 8.7 | 13.0 | 0.00 | 0.00 | 0.00 | 67 | 1018.3 |
| 20260504193143 | 82 | 108 | 7.8 | 8.7 | 0.00 | 0.00 | 0.00 | 68 | 1018.5 |
| 20260504192641 | 82 | 85 | 2.6 | 7.0 | 0.00 | 0.00 | 0.00 | 66 | 1018.5 |
| 20260504192139 | 81 | 49 | 4.3 | 13.0 | 0.00 | 0.00 | 0.00 | 68 | 1018.7 |
| 20260504191637 | 81 | 95 | 7.8 | 9.6 | 0.00 | 0.00 | 0.00 | 68 | 1018.8 |
| 20260504191133 | 80 | 66 | 9.6 | 12.2 | 0.00 | 0.00 | 0.00 | 70 | 1018.7 |
| 20260504190629 | 80 | 42 | 6.1 | 8.7 | 0.00 | 0.00 | 0.00 | 71 | 1018.8 |
| 20260504190126 | 80 | 55 | 4.3 | 12.2 | 0.00 | 0.00 | 0.00 | 70 | 1018.9 |
| 20260504185622 | 80 | 61 | 4.3 | 13.0 | 0.00 | 0.00 | 0.00 | 71 | 1019.1 |
| 20260504185119 | 81 | 87 | 3.5 | 11.3 | 0.00 | 0.00 | 0.00 | 71 | 1019.1 |
| 20260504184615 | 82 | 77 | 3.5 | 7.8 | 0.00 | 0.00 | 0.00 | 69 | 1019.3 |
| 20260504184110 | 81 | 161 | 9.6 | 13.9 | 0.00 | 0.00 | 0.00 | 68 | 1019.2 |
| 20260504183607 | 82 | 90 | 3.5 | 9.6 | 0.00 | 0.00 | 0.00 | 67 | 1019.3 |
| 20260504183105 | 81 | 74 | 5.2 | 8.7 | 0.00 | 0.00 | 0.00 | 68 | 1019.2 |
| 20260504182602 | 81 | 94 | 3.5 | 7.8 | 0.00 | 0.00 | 0.00 | 70 | 1019.3 |
| 20260504182059 | 81 | 96 | 6.1 | 9.6 | 0.00 | 0.00 | 0.00 | 68 | 1019.4 |
| 20260504181556 | 81 | 91 | 3.5 | 7.8 | 0.00 | 0.00 | 0.00 | 69 | 1019.5 |
| 20260504181054 | 80 | 121 | 6.1 | 8.7 | 0.00 | 0.00 | 0.00 | 69 | 1019.7 |
| 20260504180553 | 80 | 60 | 6.1 | 7.8 | 0.00 | 0.00 | 0.00 | 70 | 1019.5 |
| 20260504180052 | 81 | 59 | 7.0 | 11.3 | 0.00 | 0.00 | 0.00 | 70 | 1019.3 |
| 20260504175548 | 81 | 47 | 4.3 | 7.8 | 0.00 | 0.00 | 0.00 | 70 | 1019.5 |
| 20260504175045 | 82 | 36 | 6.1 | 11.3 | 0.00 | 0.00 | 0.00 | 70 | 1019.7 |
| 20260504174543 | 80 | 116 | 6.1 | 8.7 | 0.00 | 0.00 | 0.00 | 70 | 1019.6 |
| 20260504174040 | 80 | 90 | 3.5 | 12.2 | 0.00 | 0.00 | 0.00 | 70 | 1019.5 |
| 20260504173537 | 81 | 61 | 3.5 | 8.7 | 0.00 | 0.00 | 0.00 | 69 | 1019.7 |
| 20260504173034 | 81 | 77 | 6.1 | 11.3 | 0.00 | 0.00 | 0.00 | 68 | 1019.9 |
| 20260504172530 | 80 | 95 | 1.7 | 7.0 | 0.00 | 0.00 | 0.00 | 70 | 1019.9 |
| 20260504172027 | 80 | 68 | 4.3 | 7.0 | 0.00 | 0.00 | 0.00 | 70 | 1020.0 |
| 20260504171524 | 80 | 135 | 4.3 | 7.8 | 0.00 | 0.00 | 0.00 | 71 | 1019.9 |
| 20260504171021 | 79 | 62 | 4.3 | 11.3 | 0.00 | 0.00 | 0.00 | 70 | 1020.0 |
| 20260504170516 | 80 | 96 | 2.6 | 11.3 | 0.00 | 0.00 | 0.00 | 70 | 1019.9 |
| 20260504160437 | 79 | 54 | 2.6 | 9.6 | 0.00 | 0.00 | 0.00 | 68 | 1020.6 |
| 20260504150900 | 78 | 101 | 4.3 | 8.7 | 0.00 | 0.00 | 0.00 | 70 | 1020.6 |
| 20260504150358 | 77 | 73 | 2.6 | 9.6 | 0.00 | 0.00 | 0.00 | 70 | 1020.7 |
| 20260504141327 | 76 | 80 | 4.3 | 9.6 | 0.00 | 0.00 | 0.00 | 76 | 1020.3 |
| 20260504140824 | 76 | 55 | 1.7 | 7.0 | 0.00 | 0.00 | 0.00 | 77 | 1020.3 |
| 20260504140319 | 76 | 89 | 1.7 | 11.3 | 0.00 | 0.00 | 0.00 | 78 | 1020.3 |
| 20260504130748 | 72 | 57 | 3.5 | 7.0 | 0.00 | 0.00 | 0.00 | 83 | 1020.0 |
| 20260504130244 | 72 | 95 | 0.9 | 7.0 | 0.00 | 0.00 | 0.00 | 84 | 1020.1 |
| 20260504120208 | 71 | 56 | 5.2 | 7.0 | 0.00 | 0.00 | 0.00 | 88 | 1019.6 |
| 20260504110635 | 70 | 112 | 1.7 | 6.1 | 0.00 | 0.00 | 0.00 | 89 | 1019.3 |
| 20260504110131 | 70 | 55 | 1.7 | 2.6 | 0.00 | 0.00 | 0.00 | 89 | 1019.0 |
| 20260504100552 | 69 | 34 | 1.7 | 5.2 | 0.00 | 0.00 | 0.00 | 91 | 1018.6 |
| 20260504081945 | 69 | 23 | 4.3 | 7.8 | 0.00 | 0.00 | 0.00 | 90 | 1018.7 |
| 20260504081442 | 69 | 10 | 3.5 | 7.0 | 0.00 | 0.00 | 0.00 | 90 | 1019.0 |
| 20260504080938 | 69 | 90 | 2.6 | 2.6 | 0.00 | 0.00 | 0.00 | 90 | 1018.7 |
| 20260504080435 | 69 | 18 | 2.6 | 5.2 | 0.00 | 0.00 | 0.00 | 90 | 1018.8 |
| 20260504070403 | 69 | 72 | 0.9 | 2.6 | 0.00 | 0.00 | 0.00 | 92 | 1018.5 |